Time,TemperatureF,DewpointF,PressureIn,WindDirection,WindDirectionDegrees,WindSpeedMPH,WindSpeedGustMPH,Humidity,HourlyPrecipIn,Conditions,Clouds,dailyrainin,SolarRadiationWatts/m^2,SoftwareType,DateUTC
2013-04-15 00:01:00,27.8,26.8,29.72,NNE,12,25.0,25.0,96,0.00,,,0.00,0.00,VWS V14.00,2013-04-15 05:01:00,
2013-04-15 00:06:00,27.8,26.8,29.72,North,5,22.0,31.0,96,0.00,,,0.00,0.00,VWS V14.00,2013-04-15 05:06:00,
2013-04-15 00:12:00,27.8,26.8,29.73,North,5,28.0,33.0,96,0.00,,,0.00,0.00,VWS V14.00,2013-04-15 05:12:00,
2013-04-15 00:17:00,27.8,26.8,29.73,NNE,22,24.0,33.0,96,0.00,,,0.00,0.00,VWS V14.00,2013-04-15 05:17:00,
2013-04-15 00:22:00,27.8,26.8,29.73,NNE,13,26.0,33.0,96,0.00,,,0.00,0.00,VWS V14.00,2013-04-15 05:22:00,
2013-04-15 00:27:00,27.7,26.7,29.73,North,5,20.0,33.0,96,0.00,,,0.00,0.00,VWS V14.00,2013-04-15 05:27:00,
2013-04-15 00:32:00,27.7,26.7,29.72,North,11,23.0,27.0,96,0.00,,,0.00,0.00,VWS V14.00,2013-04-15 05:32:00,
2013-04-15 00:37:00,27.7,26.7,29.72,NNE,20,23.0,28.0,96,0.00,,,0.00,0.00,VWS V14.00,2013-04-15 05:37:00,
2013-04-15 00:42:00,27.6,26.6,29.72,North,5,18.0,30.0,96,0.00,,,0.00,0.00,VWS V14.00,2013-04-15 05:42:00,
2013-04-15 00:48:00,27.6,26.6,29.72,North,5,22.0,30.0,96,0.00,,,0.00,0.00,VWS V14.00,2013-04-15 05:48:00,
2013-04-15 00:53:00,27.7,26.7,29.73,North,5,24.0,30.0,96,0.00,,,0.00,0.00,VWS V14.00,2013-04-15 05:53:00,
2013-04-15 00:58:00,27.7,26.7,29.73,North,9,22.0,30.0,96,0.00,,,0.00,0.00,VWS V14.00,2013-04-15 05:58:00,
2013-04-15 01:03:00,27.7,26.7,29.73,North,10,19.0,26.0,96,0.00,,,0.00,0.00,VWS V14.00,2013-04-15 06:03:00,
2013-04-15 01:08:00,27.8,26.8,29.73,North,5,23.0,27.0,96,0.00,,,0.00,0.00,VWS V14.00,2013-04-15 06:08:00,
2013-04-15 01:13:00,27.8,26.8,29.73,North,360,17.0,30.0,96,0.00,,,0.00,0.00,VWS V14.00,2013-04-15 06:13:00,
2013-04-15 01:19:00,27.8,26.8,29.73,North,360,24.0,30.0,96,0.00,,,0.00,0.00,VWS V14.00,2013-04-15 06:19:00,
2013-04-15 01:24:00,27.8,26.8,29.73,North,5,23.0,30.0,96,0.00,,,0.00,0.00,VWS V14.00,2013-04-15 06:24:00,
2013-04-15 01:29:00,27.8,26.8,29.73,North,355,26.0,30.0,96,0.00,,,0.00,0.00,VWS V14.00,2013-04-15 06:29:00,
2013-04-15 01:34:00,27.8,26.8,29.73,NNE,15,17.0,26.0,96,0.00,,,0.00,0.00,VWS V14.00,2013-04-15 06:34:00,
2013-04-15 01:39:00,27.8,26.8,29.73,North,5,22.0,28.0,96,0.00,,,0.00,0.00,VWS V14.00,2013-04-15 06:39:00,
2013-04-15 01:44:00,27.8,26.8,29.73,North,5,20.0,29.0,96,0.00,,,0.00,0.00,VWS V14.00,2013-04-15 06:44:00,
2013-04-15 01:49:00,27.8,26.8,29.73,NNW,347,22.0,29.0,96,0.00,,,0.00,0.00,VWS V14.00,2013-04-15 06:49:00,
2013-04-15 01:54:00,27.9,26.9,29.74,NNE,21,21.0,31.0,96,0.00,,,0.00,0.00,VWS V14.00,2013-04-15 06:54:00,
2013-04-15 01:59:00,27.9,26.9,29.74,North,355,17.0,31.0,96,0.00,,,0.00,0.00,VWS V14.00,2013-04-15 06:59:00,
2013-04-15 02:04:00,27.8,26.8,29.74,North,5,16.0,29.0,96,0.00,,,0.00,0.00,VWS V14.00,2013-04-15 07:04:00,
2013-04-15 02:41:00,27.2,26.2,29.74,North,351,23.0,31.0,96,0.00,,,0.00,0.00,VWS V14.00,2013-04-15 07:41:00,
2013-04-15 02:43:00,27.2,26.2,29.74,North,355,24.0,31.0,96,0.00,,,0.00,0.00,VWS V14.00,2013-04-15 07:43:00,
2013-04-15 02:44:00,27.2,26.2,29.74,NNW,348,23.0,31.0,96,0.00,,,0.00,0.00,VWS V14.00,2013-04-15 07:44:00,
2013-04-15 02:45:00,27.2,26.2,29.74,North,355,15.0,31.0,96,0.00,,,0.00,0.00,VWS V14.00,2013-04-15 07:45:00,
2013-04-15 02:48:00,27.2,26.2,29.74,North,350,20.0,32.0,96,0.00,,,0.00,0.00,VWS V14.00,2013-04-15 07:48:00,
2013-04-15 02:49:00,27.2,26.2,29.74,North,355,22.0,32.0,96,0.00,,,0.00,0.00,VWS V14.00,2013-04-15 07:49:00,
2013-04-15 02:52:00,27.2,26.2,29.74,NNW,346,21.0,32.0,96,0.00,,,0.00,0.00,VWS V14.00,2013-04-15 07:52:00,
2013-04-15 02:56:00,27.2,26.2,29.74,NNW,338,25.0,32.0,96,0.00,,,0.00,0.00,VWS V14.00,2013-04-15 07:56:00,
2013-04-15 03:01:00,27.1,26.1,29.74,NNW,348,25.0,30.0,96,0.00,,,0.00,0.00,VWS V14.00,2013-04-15 08:01:00,
2013-04-15 03:06:00,27.1,26.1,29.74,North,5,21.0,30.0,96,0.00,,,0.00,0.00,VWS V14.00,2013-04-15 08:06:00,
2013-04-15 03:11:00,27.1,26.1,29.74,NNW,340,24.0,30.0,96,0.00,,,0.00,0.00,VWS V14.00,2013-04-15 08:11:00,
2013-04-15 03:17:00,27.0,26.0,29.74,North,355,26.0,30.0,96,0.00,,,0.00,0.00,VWS V14.00,2013-04-15 08:17:00,
2013-04-15 03:22:00,26.9,25.9,29.74,NNW,345,22.0,30.0,96,0.00,,,0.00,0.00,VWS V14.00,2013-04-15 08:22:00,
2013-04-15 03:27:00,26.9,25.9,29.74,NNW,346,21.0,30.0,96,0.00,,,0.00,0.00,VWS V14.00,2013-04-15 08:27:00,
2013-04-15 03:32:00,26.9,25.9,29.74,North,5,18.0,27.0,96,0.00,,,0.00,0.00,VWS V14.00,2013-04-15 08:32:00,
2013-04-15 03:37:00,26.9,25.9,29.74,NNW,332,21.0,27.0,96,0.00,,,0.00,0.00,VWS V14.00,2013-04-15 08:37:00,
2013-04-15 03:40:00,26.8,25.8,29.75,NNW,335,21.0,27.0,96,0.00,,,0.00,0.00,VWS V14.00,2013-04-15 08:40:00,
2013-04-15 03:43:00,26.8,25.8,29.75,NNW,339,22.0,27.0,96,0.00,,,0.00,0.00,VWS V14.00,2013-04-15 08:43:00,
2013-04-15 03:48:00,26.8,25.8,29.75,NW,325,18.0,28.0,96,0.00,,,0.00,0.00,VWS V14.00,2013-04-15 08:48:00,
2013-04-15 03:50:00,26.8,25.8,29.75,NNW,341,17.0,28.0,96,0.00,,,0.00,0.00,VWS V14.00,2013-04-15 08:50:00,
2013-04-15 03:55:00,26.8,25.8,29.75,NNW,346,21.0,28.0,96,0.00,,,0.00,0.00,VWS V14.00,2013-04-15 08:55:00,
2013-04-15 04:00:00,26.8,25.8,29.75,NNW,342,18.0,28.0,96,0.00,,,0.00,0.00,VWS V14.00,2013-04-15 09:00:00,
2013-04-15 04:05:00,26.8,25.8,29.75,NNW,338,19.0,25.0,96,0.00,,,0.00,0.00,VWS V14.00,2013-04-15 09:05:00,
2013-04-15 04:10:00,26.8,25.8,29.75,NNW,327,23.0,26.0,96,0.00,,,0.00,0.00,VWS V14.00,2013-04-15 09:10:00,
2013-04-15 04:15:00,26.7,25.7,29.76,NNW,337,26.0,26.0,96,0.00,,,0.00,0.00,VWS V14.00,2013-04-15 09:15:00,
2013-04-15 04:20:00,26.7,25.7,29.76,NNW,341,23.0,26.0,96,0.00,,,0.00,0.00,VWS V14.00,2013-04-15 09:20:00,
2013-04-15 04:25:00,26.7,25.7,29.76,NNW,336,20.0,26.0,96,0.00,,,0.00,0.00,VWS V14.00,2013-04-15 09:25:00,
2013-04-15 04:30:00,26.7,25.7,29.76,NNW,331,24.0,25.0,96,0.00,,,0.00,0.00,VWS V14.00,2013-04-15 09:30:00,
2013-04-15 04:36:00,26.7,25.7,29.76,NNW,348,21.0,25.0,96,0.00,,,0.00,0.00,VWS V14.00,2013-04-15 09:36:00,
2013-04-15 04:41:00,26.7,25.7,29.76,NNW,338,22.0,25.0,96,0.00,,,0.00,0.00,VWS V14.00,2013-04-15 09:41:00,
2013-04-15 04:46:00,26.8,25.8,29.76,NNW,340,20.0,28.0,96,0.00,,,0.00,0.00,VWS V14.00,2013-04-15 09:46:00,
2013-04-15 04:51:00,26.8,25.8,29.77,NNW,348,21.0,29.0,96,0.00,,,0.00,0.00,VWS V14.00,2013-04-15 09:51:00,
2013-04-15 04:57:00,26.8,25.8,29.77,NNW,348,26.0,30.0,96,0.00,,,0.00,0.00,VWS V14.00,2013-04-15 09:57:00,
2013-04-15 05:02:00,26.8,25.8,29.76,NNW,338,17.0,26.0,96,0.00,,,0.00,0.00,VWS V14.00,2013-04-15 10:02:00,
2013-04-15 05:07:00,26.8,25.8,29.76,NNW,344,23.0,28.0,96,0.00,,,0.00,0.00,VWS V14.00,2013-04-15 10:07:00,
2013-04-15 05:12:00,26.9,25.9,29.77,NNW,338,19.0,28.0,96,0.00,,,0.00,0.00,VWS V14.00,2013-04-15 10:12:00,
2013-04-15 05:17:00,26.8,25.8,29.77,NNW,344,19.0,28.0,96,0.00,,,0.00,0.00,VWS V14.00,2013-04-15 10:17:00,
2013-04-15 05:22:00,26.8,25.8,29.77,NNW,343,27.0,29.0,96,0.00,,,0.00,0.00,VWS V14.00,2013-04-15 10:22:00,
2013-04-15 05:27:00,26.7,25.7,29.77,NNW,336,22.0,29.0,96,0.00,,,0.00,0.00,VWS V14.00,2013-04-15 10:27:00,
2013-04-15 05:32:00,26.7,25.7,29.77,NNW,331,19.0,26.0,96,0.00,,,0.00,0.00,VWS V14.00,2013-04-15 10:32:00,
2013-04-15 05:38:00,26.7,25.7,29.77,NNW,335,26.0,27.0,96,0.00,,,0.00,0.00,VWS V14.00,2013-04-15 10:38:00,
2013-04-15 05:43:00,26.7,25.7,29.77,NNW,346,24.0,29.0,96,0.00,,,0.00,0.00,VWS V14.00,2013-04-15 10:43:00,
2013-04-15 05:48:00,26.6,25.6,29.78,NNW,328,22.0,29.0,96,0.00,,,0.00,0.00,VWS V14.00,2013-04-15 10:48:00,
2013-04-15 05:53:00,26.6,25.6,29.78,NNW,344,19.0,29.0,96,0.00,,,0.00,0.00,VWS V14.00,2013-04-15 10:53:00,
2013-04-15 05:58:00,26.6,25.6,29.78,NNW,347,25.0,30.0,96,0.00,,,0.00,0.00,VWS V14.00,2013-04-15 10:58:00,
2013-04-15 06:03:00,26.6,25.6,29.78,NNW,334,23.0,27.0,96,0.00,,,0.00,0.00,VWS V14.00,2013-04-15 11:03:00,
2013-04-15 06:08:00,26.5,25.5,29.78,NNW,338,24.0,28.0,96,0.00,,,0.00,0.00,VWS V14.00,2013-04-15 11:08:00,
2013-04-15 06:13:00,26.5,25.5,29.78,NNW,338,23.0,31.0,96,0.00,,,0.00,0.00,VWS V14.00,2013-04-15 11:13:00,
2013-04-15 06:18:00,26.5,25.5,29.78,NNW,342,20.0,32.0,96,0.00,,,0.00,0.00,VWS V14.00,2013-04-15 11:18:00,
2013-04-15 06:24:00,26.4,25.4,29.78,NNW,336,28.0,32.0,96,0.00,,,0.00,0.00,VWS V14.00,2013-04-15 11:24:00,
2013-04-15 06:29:00,26.5,25.5,29.78,NNW,333,26.0,32.0,96,0.00,,,0.00,0.00,VWS V14.00,2013-04-15 11:29:00,
2013-04-15 06:34:00,26.5,25.5,29.79,NNW,329,24.0,26.0,96,0.00,,,0.00,0.00,VWS V14.00,2013-04-15 11:34:00,
2013-04-15 06:39:00,26.5,25.5,29.79,NNW,341,25.0,28.0,96,0.00,,,0.00,0.00,VWS V14.00,2013-04-15 11:39:00,
2013-04-15 06:45:00,26.5,25.5,29.80,NNW,331,24.0,28.0,96,0.00,,,0.00,0.00,VWS V14.00,2013-04-15 11:45:00,
2013-04-15 06:51:00,26.6,25.6,29.80,NNW,327,19.0,28.0,96,0.00,,,0.00,0.00,VWS V14.00,2013-04-15 11:51:00,
2013-04-15 06:56:00,26.6,25.6,29.80,NW,326,18.0,28.0,96,0.00,,,0.00,5.00,VWS V14.00,2013-04-15 11:56:00,
2013-04-15 07:01:00,26.6,25.6,29.80,NW,325,14.0,23.0,96,0.00,,,0.00,7.00,VWS V14.00,2013-04-15 12:01:00,
2013-04-15 07:06:00,26.5,25.3,29.81,NNW,330,18.0,24.0,95,0.00,,,0.00,12.00,VWS V14.00,2013-04-15 12:06:00,
2013-04-15 07:12:00,26.5,25.5,29.81,NW,321,19.0,24.0,96,0.00,,,0.00,19.00,VWS V14.00,2013-04-15 12:12:00,
2013-04-15 07:17:00,26.5,25.3,29.81,NNW,329,22.0,26.0,95,0.00,,,0.00,28.00,VWS V14.00,2013-04-15 12:17:00,
2013-04-15 07:22:00,26.5,25.3,29.81,NNW,336,23.0,26.0,95,0.00,,,0.00,35.00,VWS V14.00,2013-04-15 12:22:00,
2013-04-15 07:27:00,26.5,25.3,29.81,NNW,327,18.0,26.0,95,0.00,,,0.00,40.00,VWS V14.00,2013-04-15 12:27:00,
2013-04-15 07:32:00,26.5,25.3,29.81,NW,315,17.0,22.0,95,0.00,,,0.00,44.00,VWS V14.00,2013-04-15 12:32:00,
2013-04-15 07:37:00,26.6,25.4,29.81,NNW,335,21.0,25.0,95,0.00,,,0.00,46.00,VWS V14.00,2013-04-15 12:37:00,
2013-04-15 07:43:00,26.6,25.4,29.81,NNW,331,16.0,25.0,95,0.00,,,0.00,49.00,VWS V14.00,2013-04-15 12:43:00,
2013-04-15 07:48:00,26.6,25.4,29.80,NW,326,15.0,25.0,95,0.00,,,0.00,60.00,VWS V14.00,2013-04-15 12:48:00,
2013-04-15 07:53:00,26.6,25.4,29.81,NW,326,17.0,25.0,95,0.00,,,0.00,84.00,VWS V14.00,2013-04-15 12:53:00,
2013-04-15 08:02:00,26.6,25.4,29.81,NW,319,17.0,23.0,95,0.00,,,0.00,118.00,VWS V14.00,2013-04-15 13:02:00,
2013-04-15 08:07:00,26.7,25.5,29.81,NNW,338,19.0,25.0,95,0.00,,,0.00,132.00,VWS V14.00,2013-04-15 13:07:00,
2013-04-15 08:12:00,26.7,25.5,29.81,NNW,338,22.0,25.0,95,0.00,,,0.00,144.00,VWS V14.00,2013-04-15 13:12:00,
2013-04-15 08:18:00,26.7,25.5,29.81,NNW,333,27.0,27.0,95,0.00,,,0.00,142.00,VWS V14.00,2013-04-15 13:18:00,
2013-04-15 08:23:00,26.6,25.4,29.81,NNW,331,18.0,27.0,95,0.00,,,0.00,142.00,VWS V14.00,2013-04-15 13:23:00,
2013-04-15 08:28:00,26.6,25.4,29.81,NNW,343,23.0,27.0,95,0.00,,,0.00,141.00,VWS V14.00,2013-04-15 13:28:00,
2013-04-15 08:33:00,26.6,25.4,29.82,NNW,336,19.0,25.0,95,0.00,,,0.00,120.00,VWS V14.00,2013-04-15 13:33:00,
2013-04-15 08:39:00,26.8,25.8,29.82,NNW,330,17.0,28.0,96,0.00,,,0.00,100.00,VWS V14.00,2013-04-15 13:39:00,
2013-04-15 08:44:00,26.9,25.9,29.82,NNW,329,15.0,28.0,96,0.00,,,0.00,127.00,VWS V14.00,2013-04-15 13:44:00,
2013-04-15 08:50:00,27.1,25.9,29.82,NNW,340,17.0,28.0,95,0.00,,,0.00,158.00,VWS V14.00,2013-04-15 13:50:00,
2013-04-15 08:55:00,27.3,26.1,29.83,NNW,332,16.0,28.0,95,0.00,,,0.00,176.00,VWS V14.00,2013-04-15 13:55:00,
2013-04-15 09:00:00,27.3,26.1,29.83,NNW,333,23.0,28.0,95,0.00,,,0.00,200.00,VWS V14.00,2013-04-15 14:00:00,
2013-04-15 09:05:00,27.4,26.2,29.84,NNW,327,17.0,24.0,95,0.00,,,0.00,190.00,VWS V14.00,2013-04-15 14:05:00,
2013-04-15 09:10:00,27.5,26.3,29.84,NNW,333,21.0,24.0,95,0.00,,,0.00,202.00,VWS V14.00,2013-04-15 14:10:00,
2013-04-15 09:16:00,27.7,26.5,29.83,NNW,336,12.0,24.0,95,0.00,,,0.00,223.00,VWS V14.00,2013-04-15 14:16:00,
2013-04-15 09:21:00,27.8,26.6,29.83,NW,324,21.0,25.0,95,0.00,,,0.00,258.00,VWS V14.00,2013-04-15 14:21:00,
2013-04-15 09:26:00,28.0,26.8,29.84,NW,315,19.0,25.0,95,0.00,,,0.00,295.00,VWS V14.00,2013-04-15 14:26:00,
2013-04-15 09:31:00,28.1,26.9,29.84,NW,325,16.0,19.0,95,0.00,,,0.00,315.00,VWS V14.00,2013-04-15 14:31:00,
2013-04-15 09:36:00,28.1,26.9,29.84,NNW,336,19.0,22.0,95,0.00,,,0.00,371.00,VWS V14.00,2013-04-15 14:36:00,
2013-04-15 09:42:00,28.2,27.0,29.84,NNW,329,20.0,24.0,95,0.00,,OVC055,0.00,378.00,VWS V14.00,2013-04-15 14:42:00,
2013-04-15 09:48:00,28.4,27.1,29.84,NNW,336,16.0,24.0,95,0.00,,OVC055,0.00,417.00,VWS V14.00,2013-04-15 14:48:00,
2013-04-15 09:54:00,28.4,27.1,29.84,NW,315,15.0,24.0,95,0.00,,,0.00,387.00,VWS V14.00,2013-04-15 14:54:00,
2013-04-15 09:59:00,28.6,27.4,29.84,NNW,328,16.0,24.0,95,0.00,,,0.00,497.00,VWS V14.00,2013-04-15 14:59:00,
2013-04-15 10:04:00,28.9,27.6,29.84,NW,323,18.0,21.0,95,0.00,,,0.00,476.00,VWS V14.00,2013-04-15 15:04:00,
2013-04-15 10:09:00,29.0,27.8,29.84,NNW,329,15.0,21.0,95,0.00,,,0.00,504.00,VWS V14.00,2013-04-15 15:09:00,
2013-04-15 10:14:00,29.1,27.9,29.85,NNW,333,16.0,22.0,95,0.00,,,0.00,455.00,VWS V14.00,2013-04-15 15:14:00,
2013-04-15 10:19:00,29.2,28.0,29.86,NNW,341,18.0,22.0,95,0.00,,,0.00,489.00,VWS V14.00,2013-04-15 15:19:00,
2013-04-15 10:25:00,29.3,28.0,29.86,NNW,328,17.0,22.0,95,0.00,,,0.00,657.00,VWS V14.00,2013-04-15 15:25:00,
2013-04-15 10:30:00,29.5,28.2,29.86,NW,315,15.0,23.0,95,0.00,,,0.00,522.00,VWS V14.00,2013-04-15 15:30:00,
2013-04-15 10:35:00,29.5,28.2,29.86,NNW,330,20.0,25.0,95,0.00,,,0.00,538.00,VWS V14.00,2013-04-15 15:35:00,
2013-04-15 10:40:00,29.6,28.4,29.86,NW,320,15.0,25.0,95,0.00,,,0.00,643.00,VWS V14.00,2013-04-15 15:40:00,
2013-04-15 10:47:00,29.9,28.6,29.87,NNW,332,18.0,25.0,95,0.00,,,0.00,589.00,VWS V14.00,2013-04-15 15:47:00,
2013-04-15 10:52:00,29.8,28.5,29.88,NNW,344,17.0,25.0,95,0.00,,,0.00,594.00,VWS V14.00,2013-04-15 15:52:00,
2013-04-15 10:57:00,29.8,28.5,29.88,NNW,333,17.0,25.0,95,0.00,,,0.00,555.00,VWS V14.00,2013-04-15 15:57:00,
2013-04-15 11:02:00,29.8,28.5,29.88,NW,325,15.0,20.0,95,0.00,,,0.00,468.00,VWS V14.00,2013-04-15 16:02:00,
2013-04-15 11:08:00,29.7,28.5,29.89,NW,324,17.0,22.0,95,0.00,,,0.00,517.00,VWS V14.00,2013-04-15 16:08:00,
2013-04-15 11:13:00,29.7,28.5,29.89,NW,314,13.0,24.0,95,0.00,,,0.00,517.00,VWS V14.00,2013-04-15 16:13:00,
2013-04-15 11:18:00,29.9,28.6,29.89,NW,325,17.0,24.0,95,0.00,,,0.00,522.00,VWS V14.00,2013-04-15 16:18:00,
2013-04-15 11:23:00,29.9,28.4,29.89,NW,323,17.0,24.0,94,0.00,,,0.00,624.00,VWS V14.00,2013-04-15 16:23:00,
2013-04-15 11:28:00,30.1,28.6,29.89,NNW,337,18.0,24.0,94,0.00,,,0.00,547.00,VWS V14.00,2013-04-15 16:28:00,
2013-04-15 11:34:00,30.0,28.5,29.90,NNW,348,15.0,19.0,94,0.00,,OVC036,0.00,475.00,VWS V14.00,2013-04-15 16:34:00,
2013-04-15 11:39:00,29.9,28.4,29.90,NNW,332,18.0,22.0,94,0.00,,OVC036,0.00,585.00,VWS V14.00,2013-04-15 16:39:00,
2013-04-15 11:44:00,30.0,28.5,29.91,NNW,339,16.0,22.0,94,0.00,,OVC036,0.00,752.00,VWS V14.00,2013-04-15 16:44:00,
2013-04-15 11:49:00,30.1,28.6,29.91,NNW,336,15.0,22.0,94,1.04,,OVC036,1.04,545.00,VWS V14.00,2013-04-15 16:49:00,
2013-04-15 11:54:00,30.2,28.9,29.91,NNW,340,15.0,22.0,95,1.04,,OVC036,1.04,626.00,VWS V14.00,2013-04-15 16:54:00,
2013-04-15 11:59:00,30.1,28.6,29.91,NNW,336,17.0,23.0,94,1.04,,OVC036,1.04,633.00,VWS V14.00,2013-04-15 16:59:00,
2013-04-15 12:04:00,30.1,28.8,29.91,NNW,333,19.0,20.0,95,1.04,,OVC036,1.04,534.00,VWS V14.00,2013-04-15 17:04:00,
2013-04-15 12:09:00,30.1,28.6,29.91,NNW,338,17.0,20.0,94,1.05,,OVC036,1.05,598.00,VWS V14.00,2013-04-15 17:09:00,
2013-04-15 12:14:00,29.7,28.5,29.92,NNW,336,21.0,23.0,95,1.05,,OVC036,1.05,504.00,VWS V14.00,2013-04-15 17:14:00,
2013-04-15 12:19:00,29.9,28.6,29.92,NNW,327,15.0,23.0,95,1.05,,OVC036,1.05,520.00,VWS V14.00,2013-04-15 17:19:00,
2013-04-15 12:21:00,29.8,28.5,29.92,NNW,332,19.0,23.0,95,1.05,,OVC036,1.05,543.00,VWS V14.00,2013-04-15 17:21:00,
2013-04-15 12:24:00,29.9,28.6,29.93,NNW,327,16.0,23.0,95,1.06,,OVC036,1.06,582.00,VWS V14.00,2013-04-15 17:24:00,
2013-04-15 12:26:00,29.9,28.6,29.93,NNW,332,16.0,23.0,95,1.06,,OVC036,1.06,550.00,VWS V14.00,2013-04-15 17:26:00,
2013-04-15 12:28:00,29.9,28.6,29.93,NNW,339,16.0,23.0,95,1.06,,OVC036,1.06,561.00,VWS V14.00,2013-04-15 17:28:00,
2013-04-15 12:29:00,29.9,28.6,29.93,NW,325,14.0,23.0,95,1.06,,OVC036,1.06,570.00,VWS V14.00,2013-04-15 17:29:00,
2013-04-15 12:34:00,29.9,28.6,29.93,NNW,331,15.0,22.0,95,1.07,,,1.07,610.00,VWS V14.00,2013-04-15 17:34:00,
2013-04-15 12:39:00,30.1,28.8,29.93,NNW,334,14.0,22.0,95,1.07,,,1.07,589.00,VWS V14.00,2013-04-15 17:39:00,
2013-04-15 12:45:00,30.4,29.1,29.93,NW,325,10.0,22.0,95,1.07,,,1.07,628.00,VWS V14.00,2013-04-15 17:45:00,
2013-04-15 12:50:00,30.3,29.0,29.94,NNW,332,16.0,22.0,95,1.08,,,1.08,545.00,VWS V14.00,2013-04-15 17:50:00,
2013-04-15 12:55:00,29.9,28.4,29.94,NNW,344,16.0,23.0,94,1.08,,,1.08,561.00,VWS V14.00,2013-04-15 17:55:00,
2013-04-15 13:00:00,29.9,28.4,29.94,NNW,330,18.0,23.0,94,1.09,,,1.09,594.00,VWS V14.00,2013-04-15 18:00:00,
2013-04-15 13:07:00,30.0,28.7,29.94,NW,325,14.0,23.0,95,0.05,,,1.09,621.00,VWS V14.00,2013-04-15 18:07:00,
2013-04-15 13:12:00,29.8,28.5,29.94,NNW,334,22.0,24.0,95,0.05,,,1.09,601.00,VWS V14.00,2013-04-15 18:12:00,
2013-04-15 13:17:00,30.0,28.7,29.94,NNW,333,14.0,24.0,95,0.05,,,1.09,698.00,VWS V14.00,2013-04-15 18:17:00,
2013-04-15 13:23:00,30.1,28.8,29.94,NNW,329,12.0,24.0,95,0.06,,,1.10,663.00,VWS V14.00,2013-04-15 18:23:00,
2013-04-15 13:29:00,30.2,28.9,29.94,NW,315,16.0,24.0,95,0.07,,,1.11,719.00,VWS V14.00,2013-04-15 18:29:00,
2013-04-15 13:30:00,30.2,28.9,29.94,NNW,333,15.0,24.0,95,0.07,,,1.11,714.00,VWS V14.00,2013-04-15 18:30:00,
2013-04-15 13:31:00,30.2,28.9,29.94,NW,322,18.0,22.0,95,0.05,,,1.11,714.00,VWS V14.00,2013-04-15 18:31:00,
2013-04-15 13:33:00,30.2,28.9,29.94,NNW,331,19.0,22.0,95,0.05,,,1.11,759.00,VWS V14.00,2013-04-15 18:33:00,
2013-04-15 13:38:00,30.5,29.2,29.94,NNW,336,18.0,22.0,95,0.05,,,1.11,802.00,VWS V14.00,2013-04-15 18:38:00,
2013-04-15 13:43:00,30.7,29.4,29.94,NW,315,18.0,22.0,95,0.05,,,1.11,710.00,VWS V14.00,2013-04-15 18:43:00,
2013-04-15 13:48:00,31.0,29.7,29.94,NW,313,15.0,22.0,95,0.06,,,1.12,960.00,VWS V14.00,2013-04-15 18:48:00,
2013-04-15 13:53:00,31.1,29.6,29.94,NW,304,18.0,22.0,94,0.07,,,1.13,963.00,VWS V14.00,2013-04-15 18:53:00,
2013-04-15 13:58:00,31.0,29.5,29.95,NW,309,15.0,22.0,94,0.07,,,1.13,703.00,VWS V14.00,2013-04-15 18:58:00,
2013-04-15 14:03:00,31.0,29.5,29.95,NW,316,20.0,21.0,94,0.04,,,1.13,947.00,VWS V14.00,2013-04-15 19:03:00,
2013-04-15 14:08:00,31.0,29.5,29.95,NW,315,20.0,21.0,94,0.05,,,1.14,682.00,VWS V14.00,2013-04-15 19:08:00,
2013-04-15 14:14:00,31.0,29.5,29.95,NW,310,19.0,21.0,94,0.05,,,1.14,745.00,VWS V14.00,2013-04-15 19:14:00,
2013-04-15 14:19:00,31.0,29.5,29.95,NW,315,18.0,22.0,94,0.05,,,1.14,856.00,VWS V14.00,2013-04-15 19:19:00,
2013-04-15 14:24:00,31.0,29.2,29.95,NW,315,21.0,23.0,93,0.06,,,1.15,636.00,VWS V14.00,2013-04-15 19:24:00,
2013-04-15 14:29:00,31.2,29.4,29.95,NW,313,16.0,23.0,93,0.06,,,1.15,756.00,VWS V14.00,2013-04-15 19:29:00,
2013-04-15 14:34:00,31.2,29.4,29.96,NW,310,19.0,21.0,93,0.04,,,1.15,833.00,VWS V14.00,2013-04-15 19:34:00,
2013-04-15 14:39:00,30.8,28.8,29.96,NW,315,16.0,23.0,92,0.04,,,1.15,642.00,VWS V14.00,2013-04-15 19:39:00,
2013-04-15 14:44:00,31.0,29.0,29.97,NW,315,19.0,23.0,92,0.04,,,1.15,404.00,VWS V14.00,2013-04-15 19:44:00,
2013-04-15 14:50:00,31.1,29.0,29.97,NNW,332,14.0,24.0,92,0.04,,,1.15,911.00,VWS V14.00,2013-04-15 19:50:00,
2013-04-15 14:57:00,31.3,28.7,29.97,NW,317,16.0,24.0,90,0.05,,,1.16,1020.00,VWS V14.00,2013-04-15 19:57:00,
2013-04-15 14:58:00,31.4,28.8,29.97,NNW,328,16.0,24.0,90,0.05,,,1.16,865.00,VWS V14.00,2013-04-15 19:58:00,
2013-04-15 15:03:00,31.3,28.7,29.98,NW,313,15.0,20.0,90,0.03,,,1.16,717.00,VWS V14.00,2013-04-15 20:03:00,
2013-04-15 15:04:00,31.4,28.8,29.98,NW,317,14.0,20.0,90,0.03,,,1.16,708.00,VWS V14.00,2013-04-15 20:04:00,
2013-04-15 15:05:00,31.4,28.8,29.98,WNW,301,15.0,20.0,90,0.03,,,1.16,689.00,VWS V14.00,2013-04-15 20:05:00,
2013-04-15 15:06:00,31.4,28.8,29.98,NW,316,17.0,20.0,90,0.03,,,1.16,673.00,VWS V14.00,2013-04-15 20:06:00,
2013-04-15 15:07:00,31.3,28.7,29.98,WNW,303,17.0,20.0,90,0.03,,,1.16,664.00,VWS V14.00,2013-04-15 20:07:00,
2013-04-15 15:12:00,31.4,28.8,29.98,NW,310,17.0,20.0,90,0.03,,,1.16,780.00,VWS V14.00,2013-04-15 20:12:00,
2013-04-15 15:17:00,31.4,28.8,29.98,NW,308,13.0,22.0,90,0.03,,,1.16,819.00,VWS V14.00,2013-04-15 20:17:00,
2013-04-15 15:22:00,31.4,28.8,29.98,NW,313,16.0,23.0,90,0.04,,,1.17,768.00,VWS V14.00,2013-04-15 20:22:00,
2013-04-15 15:27:00,31.4,28.8,29.98,NW,318,16.0,23.0,90,0.04,,,1.17,696.00,VWS V14.00,2013-04-15 20:27:00,
2013-04-15 15:32:00,31.4,28.8,29.98,NW,311,20.0,21.0,90,0.02,,BKN030,1.17,1042.00,VWS V14.00,2013-04-15 20:32:00,
2013-04-15 15:37:00,31.6,28.7,29.98,NNW,327,20.0,25.0,89,0.02,,BKN030,1.17,860.00,VWS V14.00,2013-04-15 20:37:00,
2013-04-15 15:42:00,31.9,29.3,29.97,NW,313,18.0,25.0,90,0.02,,BKN030,1.17,860.00,VWS V14.00,2013-04-15 20:42:00,
2013-04-15 15:47:00,31.3,28.4,29.98,NNW,330,18.0,25.0,89,0.02,,BKN030,1.17,462.00,VWS V14.00,2013-04-15 20:47:00,
2013-04-15 15:52:00,31.1,28.2,29.98,NNW,338,15.0,25.0,89,0.02,,BKN030,1.17,633.00,VWS V14.00,2013-04-15 20:52:00,
2013-04-15 15:57:00,31.5,28.6,29.98,NW,325,20.0,25.0,89,0.02,,BKN030,1.17,823.00,VWS V14.00,2013-04-15 20:57:00,
2013-04-15 16:02:00,31.4,28.3,29.98,NW,326,16.0,16.0,88,0.01,,BKN030,1.17,831.00,VWS V14.00,2013-04-15 21:02:00,
2013-04-15 16:07:00,31.5,28.6,29.98,NW,315,14.0,21.0,89,0.01,,BKN030,1.17,668.00,VWS V14.00,2013-04-15 21:07:00,
2013-04-15 16:12:00,31.5,28.4,29.98,NW,319,16.0,23.0,88,0.01,,BKN030,1.17,682.00,VWS V14.00,2013-04-15 21:12:00,
2013-04-15 16:17:00,31.5,28.4,29.98,NNW,340,17.0,23.0,88,0.01,,BKN030,1.17,821.00,VWS V14.00,2013-04-15 21:17:00,
2013-04-15 16:22:00,31.6,28.2,29.98,NW,321,14.0,23.0,87,0.01,,BKN030,1.17,598.00,VWS V14.00,2013-04-15 21:22:00,
2013-04-15 16:28:00,31.4,28.3,29.98,NW,322,18.0,23.0,88,0.01,,BKN030,1.17,487.00,VWS V14.00,2013-04-15 21:28:00,
2013-04-15 16:33:00,31.5,28.1,29.98,NW,315,16.0,21.0,87,0.00,,OVC030,1.17,545.00,VWS V14.00,2013-04-15 21:33:00,
2013-04-15 16:38:00,31.3,27.9,29.98,NNW,327,17.0,23.0,87,0.00,,OVC030,1.17,476.00,VWS V14.00,2013-04-15 21:38:00,
2013-04-15 16:43:00,31.3,27.9,29.99,NW,318,16.0,23.0,87,0.00,,OVC032,1.17,362.00,VWS V14.00,2013-04-15 21:43:00,
2013-04-15 16:48:00,31.1,28.0,29.99,NNW,336,15.0,23.0,88,0.00,,OVC032,1.17,357.00,VWS V14.00,2013-04-15 21:48:00,
2013-04-15 16:53:00,30.9,27.5,29.99,NNW,338,18.0,23.0,87,0.00,,OVC032,1.17,462.00,VWS V14.00,2013-04-15 21:53:00,
2013-04-15 16:58:00,31.2,27.8,29.99,NW,315,15.0,24.0,87,0.00,,OVC032,1.17,536.00,VWS V14.00,2013-04-15 21:58:00,
2013-04-15 17:03:00,31.1,27.4,29.98,NNW,333,18.0,25.0,86,0.00,,OVC032,1.17,422.00,VWS V14.00,2013-04-15 22:03:00,
2013-04-15 17:08:00,31.1,27.4,29.98,NNW,333,15.0,25.0,86,0.00,,OVC032,1.17,396.00,VWS V14.00,2013-04-15 22:08:00,
2013-04-15 17:13:00,31.1,27.4,29.99,NNW,336,22.0,25.0,86,0.00,,OVC032,1.17,390.00,VWS V14.00,2013-04-15 22:13:00,
2013-04-15 17:18:00,31.0,27.3,29.99,NW,326,15.0,25.0,86,0.00,,OVC032,1.17,346.00,VWS V14.00,2013-04-15 22:18:00,
2013-04-15 17:23:00,31.0,27.3,29.99,NW,311,17.0,25.0,86,0.00,,OVC032,1.17,330.00,VWS V14.00,2013-04-15 22:23:00,
2013-04-15 17:28:00,30.8,27.4,30.00,NW,318,23.0,25.0,87,0.00,,OVC032,1.17,411.00,VWS V14.00,2013-04-15 22:28:00,
2013-04-15 17:34:00,31.0,27.3,30.00,NW,326,18.0,23.0,86,0.00,,OVC032,1.17,485.00,VWS V14.00,2013-04-15 22:34:00,
2013-04-15 17:39:00,31.0,26.7,30.00,NNW,327,12.0,23.0,84,0.00,,OVC032,1.17,392.00,VWS V14.00,2013-04-15 22:39:00,
2013-04-15 17:44:00,31.1,27.1,30.00,NNW,334,14.0,23.0,85,0.00,,OVC032,1.17,397.00,VWS V14.00,2013-04-15 22:44:00,
2013-04-15 17:49:00,31.1,27.1,30.01,NNW,345,16.0,23.0,85,0.00,,OVC032,1.17,371.00,VWS V14.00,2013-04-15 22:49:00,
2013-04-15 17:54:00,31.0,27.0,30.01,NNW,327,15.0,26.0,85,0.00,,OVC032,1.17,385.00,VWS V14.00,2013-04-15 22:54:00,
2013-04-15 17:59:00,31.0,26.7,30.01,NNW,330,14.0,26.0,84,0.00,,OVC032,1.17,297.00,VWS V14.00,2013-04-15 22:59:00,
2013-04-15 18:04:00,30.9,26.9,30.01,NNW,337,16.0,18.0,85,0.00,,OVC032,1.17,234.00,VWS V14.00,2013-04-15 23:04:00,
2013-04-15 18:09:00,30.5,26.8,30.02,NW,321,21.0,23.0,86,0.00,,OVC032,1.17,227.00,VWS V14.00,2013-04-15 23:09:00,
2013-04-15 18:14:00,30.4,26.1,30.02,NW,313,20.0,23.0,84,0.00,,OVC032,1.17,218.00,VWS V14.00,2013-04-15 23:14:00,
2013-04-15 18:19:00,30.4,26.4,30.03,NNW,329,19.0,23.0,85,0.00,,OVC032,1.17,214.00,VWS V14.00,2013-04-15 23:19:00,
2013-04-15 18:24:00,30.3,26.3,30.03,NNW,340,15.0,23.0,85,0.00,,OVC032,1.17,188.00,VWS V14.00,2013-04-15 23:24:00,
2013-04-15 18:29:00,30.2,26.5,30.02,NNW,342,14.0,23.0,86,0.00,,OVC032,1.17,178.00,VWS V14.00,2013-04-15 23:29:00,
2013-04-15 18:34:00,30.1,26.4,30.03,NNW,336,15.0,20.0,86,0.00,,OVC027,1.17,176.00,VWS V14.00,2013-04-15 23:34:00,
2013-04-15 18:39:00,30.0,26.3,30.03,NW,319,13.0,21.0,86,0.00,,OVC027,1.17,181.00,VWS V14.00,2013-04-15 23:39:00,
2013-04-15 18:44:00,30.0,26.0,30.03,NW,319,14.0,21.0,85,0.00,,OVC027,1.17,153.00,VWS V14.00,2013-04-15 23:44:00,
2013-04-15 18:49:00,30.0,26.0,30.03,NW,313,13.0,21.0,85,0.00,,OVC027,1.17,139.00,VWS V14.00,2013-04-15 23:49:00,
2013-04-15 18:54:00,30.0,26.0,30.04,NW,326,17.0,21.0,85,0.00,,OVC027,1.17,128.00,VWS V14.00,2013-04-15 23:54:00,
2013-04-15 19:00:00,29.8,25.9,30.04,NNW,329,15.0,23.0,85,0.00,,OVC027,1.17,130.00,VWS V14.00,2013-04-16 00:00:00,
2013-04-15 19:05:00,29.7,25.8,30.04,NNW,329,15.0,15.0,85,0.00,,OVC027,1.17,130.00,VWS V14.00,2013-04-16 00:05:00,
2013-04-15 19:10:00,29.7,25.5,30.05,NW,315,17.0,21.0,84,0.00,,OVC027,1.17,127.00,VWS V14.00,2013-04-16 00:10:00,
2013-04-15 19:15:00,29.7,25.5,30.05,NNW,331,15.0,21.0,84,0.00,,OVC029,1.17,109.00,VWS V14.00,2013-04-16 00:15:00,
2013-04-15 19:20:00,29.7,25.8,30.06,NW,307,13.0,21.0,85,0.00,,OVC029,1.17,88.00,VWS V14.00,2013-04-16 00:20:00,
2013-04-15 19:25:00,29.7,25.5,30.06,NNW,329,18.0,21.0,84,0.00,,OVC029,1.17,202.00,VWS V14.00,2013-04-16 00:25:00,
2013-04-15 19:30:00,29.7,25.5,30.07,NW,306,15.0,21.0,84,0.00,,OVC029,1.17,127.00,VWS V14.00,2013-04-16 00:30:00,
2013-04-15 19:35:00,29.8,25.6,30.07,NNW,339,17.0,18.0,84,0.00,,OVC029,1.17,144.00,VWS V14.00,2013-04-16 00:35:00,
2013-04-15 19:40:00,29.7,25.8,30.07,NNW,333,14.0,21.0,85,0.00,,OVC029,1.17,111.00,VWS V14.00,2013-04-16 00:40:00,
2013-04-15 19:45:00,29.6,25.6,30.07,NNW,327,13.0,21.0,85,0.00,,OVC029,1.17,125.00,VWS V14.00,2013-04-16 00:45:00,
2013-04-15 19:50:00,29.6,25.6,30.07,NNW,331,11.0,21.0,85,0.00,,OVC029,1.17,107.00,VWS V14.00,2013-04-16 00:50:00,
2013-04-15 19:55:00,29.5,25.6,30.07,NW,323,15.0,21.0,85,0.00,,OVC031,1.17,86.00,VWS V14.00,2013-04-16 00:55:00,
2013-04-15 20:00:00,29.3,25.4,30.08,NNW,338,15.0,21.0,85,0.00,,OVC031,1.17,60.00,VWS V14.00,2013-04-16 01:00:00,
2013-04-15 20:05:00,29.0,25.1,30.08,NNW,346,14.0,17.0,85,0.00,,OVC031,1.17,44.00,VWS V14.00,2013-04-16 01:05:00,
2013-04-15 20:10:00,28.9,25.2,30.08,NNW,336,16.0,17.0,86,0.00,,OVC031,1.17,35.00,VWS V14.00,2013-04-16 01:10:00,
2013-04-15 20:15:00,28.7,25.0,30.08,NNW,340,11.0,17.0,86,0.00,,OVC031,1.17,25.00,VWS V14.00,2013-04-16 01:15:00,
2013-04-15 20:20:00,28.7,25.0,30.08,NNW,344,10.0,17.0,86,0.00,,OVC031,1.17,14.00,VWS V14.00,2013-04-16 01:20:00,
2013-04-15 20:25:00,28.6,25.0,30.09,NNW,340,7.0,17.0,86,0.00,,OVC031,1.17,9.00,VWS V14.00,2013-04-16 01:25:00,
2013-04-15 20:30:00,28.6,25.0,30.09,NNW,340,12.0,17.0,86,0.00,,OVC031,1.17,5.00,VWS V14.00,2013-04-16 01:30:00,
2013-04-15 20:35:00,28.5,25.1,30.09,NNW,346,7.0,12.0,87,0.00,,OVC033,1.17,0.00,VWS V14.00,2013-04-16 01:35:00,
2013-04-15 20:40:00,28.5,25.1,30.10,NNW,340,11.0,12.0,87,0.00,,OVC033,1.17,0.00,VWS V14.00,2013-04-16 01:40:00,
2013-04-15 20:45:00,28.5,25.1,30.10,NNW,333,7.0,12.0,87,0.00,,OVC033,1.17,0.00,VWS V14.00,2013-04-16 01:45:00,
2013-04-15 20:50:00,28.5,25.1,30.10,NNW,330,6.0,12.0,87,0.00,,OVC033,1.17,0.00,VWS V14.00,2013-04-16 01:50:00,
2013-04-15 20:56:00,28.4,25.3,30.10,NNW,338,6.0,12.0,88,0.00,,OVC033,1.17,0.00,VWS V14.00,2013-04-16 01:56:00,
2013-04-15 21:01:00,28.5,25.4,30.11,NNW,340,7.0,12.0,88,0.00,,OVC033,1.17,0.00,VWS V14.00,2013-04-16 02:01:00,
2013-04-15 21:06:00,28.4,25.3,30.11,North,355,7.0,11.0,88,0.00,,OVC033,1.17,0.00,VWS V14.00,2013-04-16 02:06:00,
2013-04-15 21:11:00,28.3,25.5,30.11,North,355,8.0,11.0,89,0.00,,OVC033,1.17,0.00,VWS V14.00,2013-04-16 02:11:00,
2013-04-15 21:16:00,28.2,25.4,30.11,NNE,13,9.0,11.0,89,0.00,,OVC033,1.17,0.00,VWS V14.00,2013-04-16 02:16:00,
2013-04-15 21:21:00,28.1,25.3,30.11,North,5,6.0,12.0,89,0.00,,OVC033,1.17,0.00,VWS V14.00,2013-04-16 02:21:00,
2013-04-15 21:26:00,27.9,25.1,30.12,North,360,6.0,12.0,89,0.00,,OVC033,1.17,0.00,VWS V14.00,2013-04-16 02:26:00,
2013-04-15 21:31:00,27.9,25.1,30.12,North,360,7.0,8.0,89,0.00,,FEW045,1.17,0.00,VWS V14.00,2013-04-16 02:31:00,
2013-04-15 21:36:00,27.9,25.1,30.12,North,5,5.0,8.0,89,0.00,,FEW045,1.17,0.00,VWS V14.00,2013-04-16 02:36:00,
2013-04-15 21:42:00,27.8,25.0,30.12,NNE,22,8.0,9.0,89,0.00,,FEW045,1.17,0.00,VWS V14.00,2013-04-16 02:42:00,
2013-04-15 21:47:00,27.6,24.8,30.12,NNE,26,6.0,9.0,89,0.00,,FEW045,1.17,0.00,VWS V14.00,2013-04-16 02:47:00,
2013-04-15 21:52:00,27.5,25.0,30.13,NNE,26,6.0,9.0,90,0.00,,FEW045,1.17,0.00,VWS V14.00,2013-04-16 02:52:00,
2013-04-15 21:57:00,27.4,24.9,30.13,NNE,12,6.0,9.0,90,0.00,,FEW045,1.17,0.00,VWS V14.00,2013-04-16 02:57:00,
2013-04-15 22:02:00,27.4,24.9,30.13,North,349,8.0,9.0,90,0.00,,FEW045,1.17,0.00,VWS V14.00,2013-04-16 03:02:00,
2013-04-15 22:07:00,27.4,24.9,30.14,NNW,348,7.0,10.0,90,0.00,,FEW045,1.17,0.00,VWS V14.00,2013-04-16 03:07:00,
2013-04-15 22:12:00,27.4,24.6,30.14,NNW,342,7.0,10.0,89,0.00,,FEW045,1.17,0.00,VWS V14.00,2013-04-16 03:12:00,
2013-04-15 22:17:00,27.4,24.6,30.14,NNW,341,5.0,10.0,89,0.00,,FEW045,1.17,0.00,VWS V14.00,2013-04-16 03:17:00,
2013-04-15 22:22:00,27.4,24.6,30.15,NNW,331,6.0,10.0,89,0.00,,FEW045,1.17,0.00,VWS V14.00,2013-04-16 03:22:00,
2013-04-15 22:27:00,27.4,24.6,30.15,NNW,331,4.0,10.0,89,0.00,,FEW045,1.17,0.00,VWS V14.00,2013-04-16 03:27:00,
2013-04-15 22:32:00,27.4,24.6,30.15,NNW,331,3.0,5.0,89,0.00,,FEW045,1.17,0.00,VWS V14.00,2013-04-16 03:32:00,
2013-04-15 22:37:00,27.4,24.9,30.15,NNW,331,4.0,5.0,90,0.00,,FEW045,1.17,0.00,VWS V14.00,2013-04-16 03:37:00,
2013-04-15 22:42:00,27.4,24.9,30.15,NNW,331,4.0,5.0,90,0.00,,OVC050,1.17,0.00,VWS V14.00,2013-04-16 03:42:00,
2013-04-15 22:47:00,27.4,24.9,30.15,NNW,331,3.0,5.0,90,0.00,,OVC050,1.17,0.00,VWS V14.00,2013-04-16 03:47:00,
2013-04-15 22:52:00,27.3,24.5,30.15,NNW,331,5.0,7.0,89,0.00,,OVC050,1.17,0.00,VWS V14.00,2013-04-16 03:52:00,
2013-04-15 22:57:00,27.3,24.5,30.15,NNW,329,5.0,7.0,89,0.00,,OVC050,1.17,0.00,VWS V14.00,2013-04-16 03:57:00,
2013-04-15 23:01:00,27.2,24.4,30.15,NNW,329,4.0,7.0,89,0.00,,OVC050,1.17,0.00,VWS V14.00,2013-04-16 04:01:00,
2013-04-15 23:02:00,27.3,24.5,30.15,NNW,329,4.0,5.0,89,0.00,,OVC050,1.17,0.00,VWS V14.00,2013-04-16 04:02:00,
2013-04-15 23:03:00,27.2,24.4,30.15,NNW,329,5.0,5.0,89,0.00,,OVC050,1.17,0.00,VWS V14.00,2013-04-16 04:03:00,
2013-04-15 23:04:00,27.3,24.5,30.15,NNW,329,4.0,5.0,89,0.00,,OVC050,1.17,0.00,VWS V14.00,2013-04-16 04:04:00,
2013-04-15 23:09:00,27.2,24.4,30.16,NW,324,3.0,7.0,89,0.00,,OVC050,1.17,0.00,VWS V14.00,2013-04-16 04:09:00,
2013-04-15 23:14:00,27.2,24.7,30.16,NW,324,3.0,7.0,90,0.00,,OVC050,1.17,0.00,VWS V14.00,2013-04-16 04:14:00,
2013-04-15 23:19:00,27.2,24.7,30.16,NW,324,3.0,7.0,90,0.00,,OVC050,1.17,0.00,VWS V14.00,2013-04-16 04:19:00,
2013-04-15 23:24:00,27.2,24.7,30.16,NW,324,4.0,7.0,90,0.00,,OVC050,1.17,0.00,VWS V14.00,2013-04-16 04:24:00,
2013-04-15 23:29:00,27.2,24.7,30.16,NW,324,4.0,7.0,90,0.00,,OVC050,1.17,0.00,VWS V14.00,2013-04-16 04:29:00,
2013-04-15 23:34:00,27.2,24.7,30.16,NW,324,3.0,7.0,90,0.00,,OVC050,1.17,0.00,VWS V14.00,2013-04-16 04:34:00,
2013-04-15 23:39:00,27.2,24.7,30.16,NW,324,4.0,7.0,90,0.00,,OVC050,1.17,0.00,VWS V14.00,2013-04-16 04:39:00,
2013-04-15 23:44:00,27.2,24.7,30.16,NW,324,4.0,7.0,90,0.00,,OVC050,1.17,0.00,VWS V14.00,2013-04-16 04:44:00,
2013-04-15 23:49:00,27.1,24.6,30.16,NW,324,5.0,7.0,90,0.00,,OVC050,1.17,0.00,VWS V14.00,2013-04-16 04:49:00,
2013-04-15 23:54:00,27.1,24.6,30.16,NW,324,4.0,7.0,90,0.00,,OVC050,1.17,0.00,VWS V14.00,2013-04-16 04:54:00,
2013-04-15 23:59:00,27.1,24.6,30.16,NW,324,3.0,7.0,90,0.00,,OVC050,1.17,0.00,VWS V14.00,2013-04-16 04:59:00,